STARLINK-5668 (55350 NORAD) Tracking and Keplerian Element Data

This shows tracking and keplerian element data for the satellite.

Feedback or suggestion? Click here.




ElementValue
Catalog55350
NameSTARLINK-5668
Epoch Orbit1606
Epoch Day127.1251251
Epoch Year2023
RAAN178.0888
Inclination43.0008
Eccentricity0.0001325
Argument of Perigee271.4417
Mean Anonmoly88.6274
Mean Motion15.02533609
Decay Rate4.6E-07
L11 55350U 23013V 23127.12512510 .00000046 00000+0 18471-4 0 9993
L22 55350 43.0008 178.0888 0001325 271.4417 88.6274 15.02533609 16064



Live tracking and technical data element details for STARLINK-5668 (NORAD 55350). STARLINK-5668 can be tracked NOW for your location showing map with azimuth and elevation plus other details from your city location.







IsCatalogInMostPopularTable: catalog: 55350, numindb: 1
Update: records affected: 1



GetName: 55350 STARLINK-5668

Hit Count: updated at: Mon, 05 Jun 2023 20:15:01 GMT